owner,sensor,date,latitude,longitude,vertical_datum,sea_water_practical_salinity,qcFlag 
DISL,ioos:station:DISL:CATA:1,2012-12-01T00:00:00Z,30.3085,-88.1395,2.318,22.76,1111122 
DISL,ioos:station:DISL:CATA:1,2012-12-01T00:30:00Z,30.3085,-88.1395,2.349,22.83,1111122 
DISL,ioos:station:DISL:CATA:1,2012-12-01T01:00:00Z,30.3085,-88.1395,2.372,22.84,1111122 
DISL,ioos:station:DISL:CATA:1,2012-12-01T01:30:00Z,30.3085,-88.1395,2.406,22.95,1111122 
DISL,ioos:station:DISL:CATA:1,2012-12-01T02:00:00Z,30.3085,-88.1395,2.431,22.97,1111122 
DISL,ioos:station:DISL:CATA:1,2012-12-01T02:30:00Z,30.3085,-88.1395,2.455,22.93,1111122 
DISL,ioos:station:DISL:CATA:1,2012-12-01T03:00:00Z,30.3085,-88.1395,2.487,22.89,1111122 
DISL,ioos:station:DISL:CATA:1,2012-12-01T03:30:00Z,30.3085,-88.1395,2.511,22.76,1111122 
DISL,ioos:station:DISL:CATA:1,2012-12-01T04:00:00Z,30.3085,-88.1395,2.521,22.71,1111122 
DISL,ioos:station:DISL:CATA:1,2012-12-01T04:30:00Z,30.3085,-88.1395,2.531,22.72,1111122 
DISL,ioos:station:DISL:CATA:1,2012-12-01T05:00:00Z,30.3085,-88.1395,2.535,22.95,1111122 
DISL,ioos:station:DISL:CATA:1,2012-12-01T05:30:00Z,30.3085,-88.1395,2.53,23.12,1111122 
DISL,ioos:station:DISL:CATA:1,2012-12-01T06:00:00Z,30.3085,-88.1395,2.506,23.19,1111122 
DISL,ioos:station:DISL:CATA:1,2012-12-01T06:30:00Z,30.3085,-88.1395,2.487,23.26,1111122 
DISL,ioos:station:DISL:CATA:1,2012-12-01T07:00:00Z,30.3085,-88.1395,2.485,23.78,1111122 
DISL,ioos:station:DISL:CATA:1,2012-12-01T07:30:00Z,30.3085,-88.1395,2.462,23.88,1111122 
DISL,ioos:station:DISL:CATA:1,2012-12-01T08:00:00Z,30.3085,-88.1395,2.435,23.74,1111122 
DISL,ioos:station:DISL:CATA:1,2012-12-01T08:30:00Z,30.3085,-88.1395,2.411,22.47,1111122 
DISL,ioos:station:DISL:CATA:1,2012-12-01T09:00:00Z,30.3085,-88.1395,2.381,22.64,1111122 
DISL,ioos:station:DISL:CATA:1,2012-12-01T09:30:00Z,30.3085,-88.1395,2.345,22.6,1111122 
DISL,ioos:station:DISL:CATA:1,2012-12-01T10:00:00Z,30.3085,-88.1395,2.309,22.8,1111122 
DISL,ioos:station:DISL:CATA:1,2012-12-01T10:30:00Z,30.3085,-88.1395,2.266,22.47,1111122 
DISL,ioos:station:DISL:CATA:1,2012-12-01T11:00:00Z,30.3085,-88.1395,2.23,22.12,1111122 
DISL,ioos:station:DISL:CATA:1,2012-12-01T11:30:00Z,30.3085,-88.1395,2.189,22.25,1111122 
DISL,ioos:station:DISL:CATA:1,2012-12-01T12:00:00Z,30.3085,-88.1395,2.155,22.28,1111122 
DISL,ioos:station:DISL:CATA:1,2012-12-01T12:30:00Z,30.3085,-88.1395,2.135,22.33,1111122 
DISL,ioos:station:DISL:CATA:1,2012-12-01T13:00:00Z,30.3085,-88.1395,2.108,21.62,1111122 
DISL,ioos:station:DISL:CATA:1,2012-12-01T13:30:00Z,30.3085,-88.1395,2.087,21.66,1111122 
DISL,ioos:station:DISL:CATA:1,2012-12-01T14:00:00Z,30.3085,-88.1395,2.079,21.47,1111122 
DISL,ioos:station:DISL:CATA:1,2012-12-01T14:30:00Z,30.3085,-88.1395,2.071,21.56,1111122 
DISL,ioos:station:DISL:CATA:1,2012-12-01T15:00:00Z,30.3085,-88.1395,2.068,22.05,1111122 
DISL,ioos:station:DISL:CATA:1,2012-12-01T15:30:00Z,30.3085,-88.1395,2.075,22.32,1111122 
DISL,ioos:station:DISL:CATA:1,2012-12-01T16:00:00Z,30.3085,-88.1395,2.066,22.27,1111122 
DISL,ioos:station:DISL:CATA:1,2012-12-01T16:30:00Z,30.3085,-88.1395,2.065,22.15,1111122 
DISL,ioos:station:DISL:CATA:1,2012-12-01T17:00:00Z,30.3085,-88.1395,2.079,22.21,1111122 
DISL,ioos:station:DISL:CATA:1,2012-12-01T17:30:00Z,30.3085,-88.1395,2.094,22.24,1111122 
DISL,ioos:station:DISL:CATA:1,2012-12-01T18:00:00Z,30.3085,-88.1395,2.103,22.21,1111122 
DISL,ioos:station:DISL:CATA:1,2012-12-01T18:30:00Z,30.3085,-88.1395,2.109,22.22,1111122 
DISL,ioos:station:DISL:CATA:1,2012-12-01T19:00:00Z,30.3085,-88.1395,2.12,22.26,1111122 
DISL,ioos:station:DISL:CATA:1,2012-12-01T19:30:00Z,30.3085,-88.1395,2.134,22.37,1111122 
DISL,ioos:station:DISL:CATA:1,2012-12-01T20:00:00Z,30.3085,-88.1395,2.147,22.33,1111122 
DISL,ioos:station:DISL:CATA:1,2012-12-01T20:30:00Z,30.3085,-88.1395,2.165,22.52,1111122 
DISL,ioos:station:DISL:CATA:1,2012-12-01T21:00:00Z,30.3085,-88.1395,2.184,22.27,1111122 
DISL,ioos:station:DISL:CATA:1,2012-12-01T21:30:00Z,30.3085,-88.1395,2.197,22.29,1111122 
DISL,ioos:station:DISL:CATA:1,2012-12-01T22:00:00Z,30.3085,-88.1395,2.216,22.28,1111122 
DISL,ioos:station:DISL:CATA:1,2012-12-01T22:30:00Z,30.3085,-88.1395,2.235,22.35,1111122 
DISL,ioos:station:DISL:CATA:1,2012-12-01T23:00:00Z,30.3085,-88.1395,2.256,22.06,1111122 
DISL,ioos:station:DISL:CATA:1,2012-12-01T23:30:00Z,30.3085,-88.1395,2.277,22.24,1111122 
DISL,ioos:station:DISL:CATA:1,2012-12-02T00:00:00Z,30.3085,-88.1395,2.297,22.18,1111122 
DISL,ioos:station:DISL:CATA:1,2012-12-02T00:30:00Z,30.3085,-88.1395,2.319,22.08,1111122 
DISL,ioos:station:DISL:CATA:1,2012-12-02T01:00:00Z,30.3085,-88.1395,2.34,22.6,1111122 
DISL,ioos:station:DISL:CATA:1,2012-12-02T01:30:00Z,30.3085,-88.1395,2.359,22.63,1111122 
DISL,ioos:station:DISL:CATA:1,2012-12-02T02:00:00Z,30.3085,-88.1395,2.393,22.72,1111122 
DISL,ioos:station:DISL:CATA:1,2012-12-02T02:30:00Z,30.3085,-88.1395,2.422,22.84,1111122 
DISL,ioos:station:DISL:CATA:1,2012-12-02T03:00:00Z,30.3085,-88.1395,2.449,22.58,1111122 
DISL,ioos:station:DISL:CATA:1,2012-12-02T03:30:00Z,30.3085,-88.1395,2.463,22.79,1111122 
DISL,ioos:station:DISL:CATA:1,2012-12-02T04:00:00Z,30.3085,-88.1395,2.48,22.98,1111122 
DISL,ioos:station:DISL:CATA:1,2012-12-02T04:30:00Z,30.3085,-88.1395,2.488,22.98,1111122 
DISL,ioos:station:DISL:CATA:1,2012-12-02T05:00:00Z,30.3085,-88.1395,2.504,22.9,1111122 
DISL,ioos:station:DISL:CATA:1,2012-12-02T05:30:00Z,30.3085,-88.1395,2.505,22.87,1111122 
DISL,ioos:station:DISL:CATA:1,2012-12-02T06:00:00Z,30.3085,-88.1395,2.5,22.89,1111122 
DISL,ioos:station:DISL:CATA:1,2012-12-02T06:30:00Z,30.3085,-88.1395,2.499,22.95,1111122 
DISL,ioos:station:DISL:CATA:1,2012-12-02T07:00:00Z,30.3085,-88.1395,2.481,22.92,1111122 
DISL,ioos:station:DISL:CATA:1,2012-12-02T07:30:00Z,30.3085,-88.1395,2.466,23.39,1111122 
DISL,ioos:station:DISL:CATA:1,2012-12-02T08:00:00Z,30.3085,-88.1395,2.446,23.49,1111122 
DISL,ioos:station:DISL:CATA:1,2012-12-02T08:30:00Z,30.3085,-88.1395,2.423,23.54,1111122 
DISL,ioos:station:DISL:CATA:1,2012-12-02T09:00:00Z,30.3085,-88.1395,2.388,23.18,1111122 
DISL,ioos:station:DISL:CATA:1,2012-12-02T09:30:00Z,30.3085,-88.1395,2.351,21.58,1111122 
DISL,ioos:station:DISL:CATA:1,2012-12-02T10:00:00Z,30.3085,-88.1395,2.31,21.51,1111122 
DISL,ioos:station:DISL:CATA:1,2012-12-02T10:30:00Z,30.3085,-88.1395,2.269,21.37,1111122 
DISL,ioos:station:DISL:CATA:1,2012-12-02T11:00:00Z,30.3085,-88.1395,2.224,21.41,1111122 
DISL,ioos:station:DISL:CATA:1,2012-12-02T11:30:00Z,30.3085,-88.1395,2.18,21.42,1111122 
DISL,ioos:station:DISL:CATA:1,2012-12-02T12:00:00Z,30.3085,-88.1395,2.138,21.64,1111122 
DISL,ioos:station:DISL:CATA:1,2012-12-02T12:30:00Z,30.3085,-88.1395,2.105,21.58,1111122 
DISL,ioos:station:DISL:CATA:1,2012-12-02T13:00:00Z,30.3085,-88.1395,2.07,21.76,1111122 
DISL,ioos:station:DISL:CATA:1,2012-12-02T13:30:00Z,30.3085,-88.1395,2.04,22.04,1111122 
DISL,ioos:station:DISL:CATA:1,2012-12-02T14:00:00Z,30.3085,-88.1395,2.01,22.09,1111122 
DISL,ioos:station:DISL:CATA:1,2012-12-02T14:30:00Z,30.3085,-88.1395,1.992,22.16,1111122 
DISL,ioos:station:DISL:CATA:1,2012-12-02T15:00:00Z,30.3085,-88.1395,1.98,22.31,1111122 
DISL,ioos:station:DISL:CATA:1,2012-12-02T15:30:00Z,30.3085,-88.1395,1.975,22.31,1111122 
DISL,ioos:station:DISL:CATA:1,2012-12-02T16:00:00Z,30.3085,-88.1395,1.977,22.17,1111122 
DISL,ioos:station:DISL:CATA:1,2012-12-02T16:30:00Z,30.3085,-88.1395,1.98,21.92,1111122 
DISL,ioos:station:DISL:CATA:1,2012-12-02T17:00:00Z,30.3085,-88.1395,1.993,21.88,1111122 
DISL,ioos:station:DISL:CATA:1,2012-12-02T17:30:00Z,30.3085,-88.1395,2.004,21.86,1111122 
DISL,ioos:station:DISL:CATA:1,2012-12-02T18:00:00Z,30.3085,-88.1395,2.008,21.34,1111122 
DISL,ioos:station:DISL:CATA:1,2012-12-02T18:30:00Z,30.3085,-88.1395,2.022,21.14,1111122 
DISL,ioos:station:DISL:CATA:1,2012-12-02T19:00:00Z,30.3085,-88.1395,2.038,21.07,1111122 
DISL,ioos:station:DISL:CATA:1,2012-12-02T19:30:00Z,30.3085,-88.1395,2.056,21.13,1111122 
DISL,ioos:station:DISL:CATA:1,2012-12-02T20:00:00Z,30.3085,-88.1395,2.073,21.06,1111122 
DISL,ioos:station:DISL:CATA:1,2012-12-02T20:30:00Z,30.3085,-88.1395,2.091,21.08,1111122 
DISL,ioos:station:DISL:CATA:1,2012-12-02T21:00:00Z,30.3085,-88.1395,2.102,21.66,1111122 
DISL,ioos:station:DISL:CATA:1,2012-12-02T21:30:00Z,30.3085,-88.1395,2.135,21.7,1111122 
DISL,ioos:station:DISL:CATA:1,2012-12-02T22:00:00Z,30.3085,-88.1395,2.154,21.49,1111122 
DISL,ioos:station:DISL:CATA:1,2012-12-02T22:30:00Z,30.3085,-88.1395,2.175,21.71,1111122 
DISL,ioos:station:DISL:CATA:1,2012-12-02T23:00:00Z,30.3085,-88.1395,2.198,21.91,1111122 
DISL,ioos:station:DISL:CATA:1,2012-12-02T23:30:00Z,30.3085,-88.1395,2.223,22.03,1111122 
DISL,ioos:station:DISL:CATA:1,2012-12-03T00:00:00Z,30.3085,-88.1395,2.253,22.17,1111122 
DISL,ioos:station:DISL:CATA:1,2012-12-03T00:30:00Z,30.3085,-88.1395,2.279,22.2,1111122 
DISL,ioos:station:DISL:CATA:1,2012-12-03T01:00:00Z,30.3085,-88.1395,2.302,22.07,1111122 
DISL,ioos:station:DISL:CATA:1,2012-12-03T01:30:00Z,30.3085,-88.1395,2.333,22.13,1111122 
DISL,ioos:station:DISL:CATA:1,2012-12-03T02:00:00Z,30.3085,-88.1395,2.362,22.07,1111122 
DISL,ioos:station:DISL:CATA:1,2012-12-03T02:30:00Z,30.3085,-88.1395,2.39,22.04,1111122 
DISL,ioos:station:DISL:CATA:1,2012-12-03T03:00:00Z,30.3085,-88.1395,2.416,22.07,1111122 
DISL,ioos:station:DISL:CATA:1,2012-12-03T03:30:00Z,30.3085,-88.1395,2.444,22.2,1111122 
DISL,ioos:station:DISL:CATA:1,2012-12-03T04:00:00Z,30.3085,-88.1395,2.464,22.29,1111122 
DISL,ioos:station:DISL:CATA:1,2012-12-03T04:30:00Z,30.3085,-88.1395,2.485,22.3,1111122 
DISL,ioos:station:DISL:CATA:1,2012-12-03T05:00:00Z,30.3085,-88.1395,2.494,22.31,1111122 
DISL,ioos:station:DISL:CATA:1,2012-12-03T05:30:00Z,30.3085,-88.1395,2.503,22.28,1111122 
DISL,ioos:station:DISL:CATA:1,2012-12-03T06:00:00Z,30.3085,-88.1395,2.498,22.22,1111122 
DISL,ioos:station:DISL:CATA:1,2012-12-03T06:30:00Z,30.3085,-88.1395,2.497,22.2,1111122 
DISL,ioos:station:DISL:CATA:1,2012-12-03T07:00:00Z,30.3085,-88.1395,2.475,22.18,1111122 
DISL,ioos:station:DISL:CATA:1,2012-12-03T07:30:00Z,30.3085,-88.1395,2.455,22.82,1111122 
DISL,ioos:station:DISL:CATA:1,2012-12-03T08:00:00Z,30.3085,-88.1395,2.439,22.93,1111122 
DISL,ioos:station:DISL:CATA:1,2012-12-03T08:30:00Z,30.3085,-88.1395,2.417,22.87,1111122 
DISL,ioos:station:DISL:CATA:1,2012-12-03T09:00:00Z,30.3085,-88.1395,2.395,22.04,1111122 
DISL,ioos:station:DISL:CATA:1,2012-12-03T09:30:00Z,30.3085,-88.1395,2.367,21.2,1111122 
DISL,ioos:station:DISL:CATA:1,2012-12-03T10:00:00Z,30.3085,-88.1395,2.335,21.9,1111122 
DISL,ioos:station:DISL:CATA:1,2012-12-03T10:30:00Z,30.3085,-88.1395,2.295,21.94,1111122 
DISL,ioos:station:DISL:CATA:1,2012-12-03T11:00:00Z,30.3085,-88.1395,2.258,22.13,1111122 
DISL,ioos:station:DISL:CATA:1,2012-12-03T11:30:00Z,30.3085,-88.1395,2.209,22.1,1111122 
DISL,ioos:station:DISL:CATA:1,2012-12-03T12:00:00Z,30.3085,-88.1395,2.168,22.02,1111122 
DISL,ioos:station:DISL:CATA:1,2012-12-03T12:30:00Z,30.3085,-88.1395,2.131,21.62,1111122 
DISL,ioos:station:DISL:CATA:1,2012-12-03T13:00:00Z,30.3085,-88.1395,2.102,20.85,1111122 
DISL,ioos:station:DISL:CATA:1,2012-12-03T13:30:00Z,30.3085,-88.1395,2.067,20.99,1111122 
DISL,ioos:station:DISL:CATA:1,2012-12-03T14:00:00Z,30.3085,-88.1395,2.045,21.15,1111122 
DISL,ioos:station:DISL:CATA:1,2012-12-03T14:30:00Z,30.3085,-88.1395,2.024,21.85,1111122 
DISL,ioos:station:DISL:CATA:1,2012-12-03T15:00:00Z,30.3085,-88.1395,2.009,21.95,1111122 
DISL,ioos:station:DISL:CATA:1,2012-12-03T15:30:00Z,30.3085,-88.1395,2.004,21.58,1111122 
DISL,ioos:station:DISL:CATA:1,2012-12-03T16:00:00Z,30.3085,-88.1395,2.005,21.31,1111122 
DISL,ioos:station:DISL:CATA:1,2012-12-03T16:30:00Z,30.3085,-88.1395,2.013,21.39,1111122 
DISL,ioos:station:DISL:CATA:1,2012-12-03T17:00:00Z,30.3085,-88.1395,2.022,21.39,1111122 
DISL,ioos:station:DISL:CATA:1,2012-12-03T17:30:00Z,30.3085,-88.1395,2.039,21.22,1111122 
DISL,ioos:station:DISL:CATA:1,2012-12-03T18:00:00Z,30.3085,-88.1395,2.053,21.17,1111122 
DISL,ioos:station:DISL:CATA:1,2012-12-03T18:30:00Z,30.3085,-88.1395,2.063,21.03,1111122 
DISL,ioos:station:DISL:CATA:1,2012-12-03T19:00:00Z,30.3085,-88.1395,2.081,21.02,1111122 
DISL,ioos:station:DISL:CATA:1,2012-12-03T19:30:00Z,30.3085,-88.1395,2.088,21.01,1111122 
DISL,ioos:station:DISL:CATA:1,2012-12-03T20:00:00Z,30.3085,-88.1395,2.106,21.31,1111122 
DISL,ioos:station:DISL:CATA:1,2012-12-03T20:30:00Z,30.3085,-88.1395,2.118,21.25,1111122 
DISL,ioos:station:DISL:CATA:1,2012-12-03T21:00:00Z,30.3085,-88.1395,2.141,21.67,1111122 
DISL,ioos:station:DISL:CATA:1,2012-12-03T21:30:00Z,30.3085,-88.1395,2.159,21.47,1111122 
DISL,ioos:station:DISL:CATA:1,2012-12-03T22:00:00Z,30.3085,-88.1395,2.181,21.28,1111122 
DISL,ioos:station:DISL:CATA:1,2012-12-03T22:30:00Z,30.3085,-88.1395,2.2,21.35,1111122 
DISL,ioos:station:DISL:CATA:1,2012-12-03T23:00:00Z,30.3085,-88.1395,2.222,21.4,1111122 
DISL,ioos:station:DISL:CATA:1,2012-12-03T23:30:00Z,30.3085,-88.1395,2.247,21.55,1111122 
DISL,ioos:station:DISL:CATA:1,2012-12-04T00:00:00Z,30.3085,-88.1395,2.269,21.58,1111122 
DISL,ioos:station:DISL:CATA:1,2012-12-04T00:30:00Z,30.3085,-88.1395,2.295,21.49,1111122 
DISL,ioos:station:DISL:CATA:1,2012-12-04T01:00:00Z,30.3085,-88.1395,2.318,21.48,1111122 
DISL,ioos:station:DISL:CATA:1,2012-12-04T01:30:00Z,30.3085,-88.1395,2.339,21.47,1111122 
DISL,ioos:station:DISL:CATA:1,2012-12-04T02:00:00Z,30.3085,-88.1395,2.362,21.5,1111122 
DISL,ioos:station:DISL:CATA:1,2012-12-04T02:30:00Z,30.3085,-88.1395,2.391,21.45,1111122 
DISL,ioos:station:DISL:CATA:1,2012-12-04T03:00:00Z,30.3085,-88.1395,2.42,21.5,1111122 
DISL,ioos:station:DISL:CATA:1,2012-12-04T03:30:00Z,30.3085,-88.1395,2.434,21.52,1111122 
DISL,ioos:station:DISL:CATA:1,2012-12-04T04:00:00Z,30.3085,-88.1395,2.461,21.65,1111122 
DISL,ioos:station:DISL:CATA:1,2012-12-04T04:30:00Z,30.3085,-88.1395,2.493,21.98,1111122 
DISL,ioos:station:DISL:CATA:1,2012-12-04T05:00:00Z,30.3085,-88.1395,2.495,22.08,1111122 
DISL,ioos:station:DISL:CATA:1,2012-12-04T05:30:00Z,30.3085,-88.1395,2.499,22.2,1111122 
DISL,ioos:station:DISL:CATA:1,2012-12-04T06:00:00Z,30.3085,-88.1395,2.514,22.38,1111122 
DISL,ioos:station:DISL:CATA:1,2012-12-04T06:30:00Z,30.3085,-88.1395,2.524,22.48,1111122 
DISL,ioos:station:DISL:CATA:1,2012-12-04T07:00:00Z,30.3085,-88.1395,2.515,22.53,1111122 
DISL,ioos:station:DISL:CATA:1,2012-12-04T07:30:00Z,30.3085,-88.1395,2.508,22.55,1111122 
DISL,ioos:station:DISL:CATA:1,2012-12-04T08:00:00Z,30.3085,-88.1395,2.502,23.25,1111122 
DISL,ioos:station:DISL:CATA:1,2012-12-04T08:30:00Z,30.3085,-88.1395,2.496,23.39,1111122 
DISL,ioos:station:DISL:CATA:1,2012-12-04T09:00:00Z,30.3085,-88.1395,2.471,23.46,1111122 
DISL,ioos:station:DISL:CATA:1,2012-12-04T09:30:00Z,30.3085,-88.1395,2.45,23.43,1111122 
DISL,ioos:station:DISL:CATA:1,2012-12-04T10:00:00Z,30.3085,-88.1395,2.421,23.22,1111122 
DISL,ioos:station:DISL:CATA:1,2012-12-04T10:30:00Z,30.3085,-88.1395,2.398,22.52,1111122 
DISL,ioos:station:DISL:CATA:1,2012-12-04T11:00:00Z,30.3085,-88.1395,2.373,21.58,1111122 
DISL,ioos:station:DISL:CATA:1,2012-12-04T11:30:00Z,30.3085,-88.1395,2.338,21.82,1111122 
DISL,ioos:station:DISL:CATA:1,2012-12-04T12:00:00Z,30.3085,-88.1395,2.304,21.94,1111122 
DISL,ioos:station:DISL:CATA:1,2012-12-04T12:30:00Z,30.3085,-88.1395,2.274,21.76,1111122 
DISL,ioos:station:DISL:CATA:1,2012-12-04T13:00:00Z,30.3085,-88.1395,2.243,21.57,1111122 
DISL,ioos:station:DISL:CATA:1,2012-12-04T13:30:00Z,30.3085,-88.1395,2.208,21.31,1111122 
DISL,ioos:station:DISL:CATA:1,2012-12-04T14:00:00Z,30.3085,-88.1395,2.19,20.56,1111122 
DISL,ioos:station:DISL:CATA:1,2012-12-04T14:30:00Z,30.3085,-88.1395,2.174,19.81,1111122 
DISL,ioos:station:DISL:CATA:1,2012-12-04T15:00:00Z,30.3085,-88.1395,2.154,20.08,1111122 
DISL,ioos:station:DISL:CATA:1,2012-12-04T15:30:00Z,30.3085,-88.1395,2.135,20.14,1111122 
DISL,ioos:station:DISL:CATA:1,2012-12-04T16:00:00Z,30.3085,-88.1395,2.129,19.95,1111122 
DISL,ioos:station:DISL:CATA:1,2012-12-04T16:30:00Z,30.3085,-88.1395,2.134,19.67,1111122 
DISL,ioos:station:DISL:CATA:1,2012-12-04T17:00:00Z,30.3085,-88.1395,2.138,19.69,1111122 
DISL,ioos:station:DISL:CATA:1,2012-12-04T17:30:00Z,30.3085,-88.1395,2.139,19.68,1111122 
DISL,ioos:station:DISL:CATA:1,2012-12-04T18:00:00Z,30.3085,-88.1395,2.146,19.56,1111122 
DISL,ioos:station:DISL:CATA:1,2012-12-04T18:30:00Z,30.3085,-88.1395,2.154,19.46,1111122 
DISL,ioos:station:DISL:CATA:1,2012-12-04T19:00:00Z,30.3085,-88.1395,2.148,19.52,1111122 
DISL,ioos:station:DISL:CATA:1,2012-12-04T19:30:00Z,30.3085,-88.1395,2.152,19.53,1111122 
DISL,ioos:station:DISL:CATA:1,2012-12-04T20:00:00Z,30.3085,-88.1395,2.16,19.52,1111122 
DISL,ioos:station:DISL:CATA:1,2012-12-04T20:30:00Z,30.3085,-88.1395,2.174,19.45,1111122 
DISL,ioos:station:DISL:CATA:1,2012-12-04T21:00:00Z,30.3085,-88.1395,2.194,19.4,1111122 
DISL,ioos:station:DISL:CATA:1,2012-12-04T21:30:00Z,30.3085,-88.1395,2.203,19.32,1111122 
DISL,ioos:station:DISL:CATA:1,2012-12-04T22:00:00Z,30.3085,-88.1395,2.218,19.25,1111122 
DISL,ioos:station:DISL:CATA:1,2012-12-04T22:30:00Z,30.3085,-88.1395,2.235,19.39,1111122 
DISL,ioos:station:DISL:CATA:1,2012-12-04T23:00:00Z,30.3085,-88.1395,2.249,19.43,1111122 
DISL,ioos:station:DISL:CATA:1,2012-12-04T23:30:00Z,30.3085,-88.1395,2.266,19.66,1111122 
DISL,ioos:station:DISL:CATA:1,2012-12-05T00:00:00Z,30.3085,-88.1395,2.283,19.67,1111122 
DISL,ioos:station:DISL:CATA:1,2012-12-05T00:30:00Z,30.3085,-88.1395,2.308,19.92,1111122 
DISL,ioos:station:DISL:CATA:1,2012-12-05T01:00:00Z,30.3085,-88.1395,2.327,19.98,1111122 
DISL,ioos:station:DISL:CATA:1,2012-12-05T01:30:00Z,30.3085,-88.1395,2.335,19.99,1111122 
DISL,ioos:station:DISL:CATA:1,2012-12-05T02:00:00Z,30.3085,-88.1395,2.352,20.25,1111122 
DISL,ioos:station:DISL:CATA:1,2012-12-05T02:30:00Z,30.3085,-88.1395,2.374,20.53,1111122 
DISL,ioos:station:DISL:CATA:1,2012-12-05T03:00:00Z,30.3085,-88.1395,2.394,20.28,1111122 
DISL,ioos:station:DISL:CATA:1,2012-12-05T03:30:00Z,30.3085,-88.1395,2.415,20.17,1111122 
DISL,ioos:station:DISL:CATA:1,2012-12-05T04:00:00Z,30.3085,-88.1395,2.42,20.5,1111122 
DISL,ioos:station:DISL:CATA:1,2012-12-05T04:30:00Z,30.3085,-88.1395,2.432,20.55,1111122 
DISL,ioos:station:DISL:CATA:1,2012-12-05T05:00:00Z,30.3085,-88.1395,2.429,20.61,1111122 
DISL,ioos:station:DISL:CATA:1,2012-12-05T05:30:00Z,30.3085,-88.1395,2.432,20.68,1111122 
DISL,ioos:station:DISL:CATA:1,2012-12-05T06:00:00Z,30.3085,-88.1395,2.438,20.8,1111122 
DISL,ioos:station:DISL:CATA:1,2012-12-05T06:30:00Z,30.3085,-88.1395,2.446,21.23,1111122 
DISL,ioos:station:DISL:CATA:1,2012-12-05T07:00:00Z,30.3085,-88.1395,2.439,21.23,1111122 
DISL,ioos:station:DISL:CATA:1,2012-12-05T07:30:00Z,30.3085,-88.1395,2.422,21.22,1111122 
DISL,ioos:station:DISL:CATA:1,2012-12-05T08:00:00Z,30.3085,-88.1395,2.42,21.33,1111122 
DISL,ioos:station:DISL:CATA:1,2012-12-05T08:30:00Z,30.3085,-88.1395,2.41,21.36,1111122 
DISL,ioos:station:DISL:CATA:1,2012-12-05T09:00:00Z,30.3085,-88.1395,2.391,21.42,1111122 
DISL,ioos:station:DISL:CATA:1,2012-12-05T09:30:00Z,30.3085,-88.1395,2.37,21.43,1111122 
DISL,ioos:station:DISL:CATA:1,2012-12-05T10:00:00Z,30.3085,-88.1395,2.352,21.22,1111122 
DISL,ioos:station:DISL:CATA:1,2012-12-05T10:30:00Z,30.3085,-88.1395,2.316,21.1,1111122 
DISL,ioos:station:DISL:CATA:1,2012-12-05T11:00:00Z,30.3085,-88.1395,2.293,21.77,1111122 
DISL,ioos:station:DISL:CATA:1,2012-12-05T11:30:00Z,30.3085,-88.1395,2.264,21.45,1111122 
DISL,ioos:station:DISL:CATA:1,2012-12-05T12:00:00Z,30.3085,-88.1395,2.229,21.3,1111122 
DISL,ioos:station:DISL:CATA:1,2012-12-05T12:30:00Z,30.3085,-88.1395,2.2,21.22,1111122 
DISL,ioos:station:DISL:CATA:1,2012-12-05T13:00:00Z,30.3085,-88.1395,2.156,20.75,1111122 
DISL,ioos:station:DISL:CATA:1,2012-12-05T13:30:00Z,30.3085,-88.1395,2.135,20.25,1111122 
DISL,ioos:station:DISL:CATA:1,2012-12-05T14:00:00Z,30.3085,-88.1395,2.118,19.04,1111122 
DISL,ioos:station:DISL:CATA:1,2012-12-05T14:30:00Z,30.3085,-88.1395,2.1,18.99,1111122 
DISL,ioos:station:DISL:CATA:1,2012-12-05T15:00:00Z,30.3085,-88.1395,2.088,19.1,1111122 
DISL,ioos:station:DISL:CATA:1,2012-12-05T15:30:00Z,30.3085,-88.1395,2.087,18.95,1111122 
DISL,ioos:station:DISL:CATA:1,2012-12-05T16:00:00Z,30.3085,-88.1395,2.093,18.95,1111122 
DISL,ioos:station:DISL:CATA:1,2012-12-05T16:30:00Z,30.3085,-88.1395,2.092,19.16,1111122 
DISL,ioos:station:DISL:CATA:1,2012-12-05T17:00:00Z,30.3085,-88.1395,2.1,19.28,1111122 
DISL,ioos:station:DISL:CATA:1,2012-12-05T17:30:00Z,30.3085,-88.1395,2.112,19.34,1111122 
DISL,ioos:station:DISL:CATA:1,2012-12-05T18:00:00Z,30.3085,-88.1395,2.115,19.36,1111122 
DISL,ioos:station:DISL:CATA:1,2012-12-05T18:30:00Z,30.3085,-88.1395,2.134,19.35,1111122 
DISL,ioos:station:DISL:CATA:1,2012-12-05T19:00:00Z,30.3085,-88.1395,2.143,19.38,1111122 
DISL,ioos:station:DISL:CATA:1,2012-12-05T19:30:00Z,30.3085,-88.1395,2.141,19.38,1111122 
DISL,ioos:station:DISL:CATA:1,2012-12-05T20:00:00Z,30.3085,-88.1395,2.146,19.93,1111122 
DISL,ioos:station:DISL:CATA:1,2012-12-05T20:30:00Z,30.3085,-88.1395,2.163,19.97,1111122 
DISL,ioos:station:DISL:CATA:1,2012-12-05T21:00:00Z,30.3085,-88.1395,2.177,20.09,1111122 
DISL,ioos:station:DISL:CATA:1,2012-12-05T21:30:00Z,30.3085,-88.1395,2.192,20.25,1111122 
DISL,ioos:station:DISL:CATA:1,2012-12-05T22:00:00Z,30.3085,-88.1395,2.219,20.41,1111122 
DISL,ioos:station:DISL:CATA:1,2012-12-05T22:30:00Z,30.3085,-88.1395,2.23,20.69,1111122 
DISL,ioos:station:DISL:CATA:1,2012-12-05T23:00:00Z,30.3085,-88.1395,2.248,20.7,1111122 
DISL,ioos:station:DISL:CATA:1,2012-12-05T23:30:00Z,30.3085,-88.1395,2.27,20.62,1111122 
DISL,ioos:station:DISL:CATA:1,2012-12-06T00:00:00Z,30.3085,-88.1395,2.284,20.02,1111122 
DISL,ioos:station:DISL:CATA:1,2012-12-06T00:30:00Z,30.3085,-88.1395,2.305,20.07,1111122 
DISL,ioos:station:DISL:CATA:1,2012-12-06T01:00:00Z,30.3085,-88.1395,2.318,19.93,1111122 
DISL,ioos:station:DISL:CATA:1,2012-12-06T01:30:00Z,30.3085,-88.1395,2.323,19.7,1111122 
DISL,ioos:station:DISL:CATA:1,2012-12-06T02:00:00Z,30.3085,-88.1395,2.334,19.84,1111122 
DISL,ioos:station:DISL:CATA:1,2012-12-06T02:30:00Z,30.3085,-88.1395,2.349,20.51,1111122 
DISL,ioos:station:DISL:CATA:1,2012-12-06T03:00:00Z,30.3085,-88.1395,2.355,20.73,1111122 
DISL,ioos:station:DISL:CATA:1,2012-12-06T03:30:00Z,30.3085,-88.1395,2.365,20.91,1111122 
DISL,ioos:station:DISL:CATA:1,2012-12-06T04:00:00Z,30.3085,-88.1395,2.372,21.02,1111122 
DISL,ioos:station:DISL:CATA:1,2012-12-06T04:30:00Z,30.3085,-88.1395,2.378,21.29,1111122 
DISL,ioos:station:DISL:CATA:1,2012-12-06T05:00:00Z,30.3085,-88.1395,2.387,21.57,1111122 
DISL,ioos:station:DISL:CATA:1,2012-12-06T05:30:00Z,30.3085,-88.1395,2.394,22.08,1111122 
DISL,ioos:station:DISL:CATA:1,2012-12-06T06:00:00Z,30.3085,-88.1395,2.389,22.54,1111122 
DISL,ioos:station:DISL:CATA:1,2012-12-06T06:30:00Z,30.3085,-88.1395,2.38,23.02,1111122 
DISL,ioos:station:DISL:CATA:1,2012-12-06T07:00:00Z,30.3085,-88.1395,2.369,23.55,1111122 
DISL,ioos:station:DISL:CATA:1,2012-12-06T07:30:00Z,30.3085,-88.1395,2.363,23.64,1111122 
DISL,ioos:station:DISL:CATA:1,2012-12-06T08:00:00Z,30.3085,-88.1395,2.364,23.67,1111122 
DISL,ioos:station:DISL:CATA:1,2012-12-06T08:30:00Z,30.3085,-88.1395,2.351,23.2,1111122 
DISL,ioos:station:DISL:CATA:1,2012-12-06T09:00:00Z,30.3085,-88.1395,2.335,21.25,1111122 
DISL,ioos:station:DISL:CATA:1,2012-12-06T09:30:00Z,30.3085,-88.1395,2.316,19.65,1111122 
DISL,ioos:station:DISL:CATA:1,2012-12-06T10:00:00Z,30.3085,-88.1395,2.3,18.99,1111122 
DISL,ioos:station:DISL:CATA:1,2012-12-06T10:30:00Z,30.3085,-88.1395,2.291,19.03,1111122 
DISL,ioos:station:DISL:CATA:1,2012-12-06T11:00:00Z,30.3085,-88.1395,2.288,19.03,1111122 
DISL,ioos:station:DISL:CATA:1,2012-12-06T11:30:00Z,30.3085,-88.1395,2.281,18.98,1111122 
DISL,ioos:station:DISL:CATA:1,2012-12-06T12:00:00Z,30.3085,-88.1395,2.267,18.74,1111122 
DISL,ioos:station:DISL:CATA:1,2012-12-06T12:30:00Z,30.3085,-88.1395,2.254,18.82,1111122 
DISL,ioos:station:DISL:CATA:1,2012-12-06T13:00:00Z,30.3085,-88.1395,2.228,18.69,1111122 
DISL,ioos:station:DISL:CATA:1,2012-12-06T13:30:00Z,30.3085,-88.1395,2.203,18.64,1111122 
DISL,ioos:station:DISL:CATA:1,2012-12-06T14:00:00Z,30.3085,-88.1395,2.186,18.74,1111122 